Simultaneous Nadir Overpasses (SNOs) Predictions

Prediction of SNOs between GOES-16 and METOP-B Satellite Orbit:

Table of predicted SNOs for the next 14.0 days since TLE Epoch: 8/28/2020
Index Date Time (GOES-16) GOES-16 Lat,Lon METOP-B Lat,Lon Distance(km) Time Diff (sec)
1 08/29/2020 02:49:30 -0.01, -75.18 -0.92, -79.39 478.61 80
2 08/30/2020 02:26:10 -0.00, -75.18 0.16, -74.39 90.19 80
3 08/31/2020 14:47:40 0.01, -75.19 0.87, -78.94 428.00 80
4 09/01/2020 14:24:20 0.00, -75.19 -0.27, -73.95 141.39 80
5 09/03/2020 02:46:00 -0.01, -75.19 -0.77, -78.54 382.58 80
6 09/04/2020 02:22:40 -0.00, -75.20 0.37, -73.55 187.22 80
7 09/05/2020 14:44:11 0.01, -75.22 0.65, -78.11 329.48 80
8 09/06/2020 14:20:51 0.00, -75.23 -0.49, -73.12 240.75 80
9 09/08/2020 02:42:30 -0.01, -75.24 -0.56, -77.71 282.13 80
10 09/09/2020 02:19:10 -0.01, -75.25 0.53, -72.71 288.23 80
11 09/10/2020 14:40:41 0.02, -75.28 0.44, -77.28 227.90 80
12 09/11/2020 14:17:21 0.01, -75.29 -0.65, -72.28 342.64 80
